| time (UTC) | temp C | wind direction | speed KPH | gust KPH | rain 1hr cm | rain 24hr cm | rain mn cm | humidity % | barometer mb |
| 20260504174537 | 22 | 193 | 1.6 | 8.0 | 0.00 | 0.00 | 0.00 | 30 | 1012.6 |
| 20260504173033 | 22 | 315 | 0.0 | 4.8 | 0.00 | 0.00 | 0.00 | 29 | 1012.7 |
| 20260504171544 | 21 | 0 | 0.0 | 11.3 | 0.00 | 0.00 | 0.00 | 28 | 1013.1 |
| 20260504081536 | 6 | 0 | 0.0 | 0.0 | 0.00 | 0.00 | 0.00 | 80 | 1015.5 |
| 20260504044536 | 7 | 0 | 0.0 | 0.0 | 0.00 | 0.00 | 0.00 | 67 | 1015.1 |
| 20260504043046 | 8 | 0 | 0.0 | 0.0 | 0.00 | 0.00 | 0.00 | 66 | 1014.9 |
| 20260504041536 | 8 | 0 | 0.0 | 0.0 | 0.00 | 0.00 | 0.00 | 64 | 1014.9 |
| 20260504040033 | 8 | 0 | 0.0 | 0.0 | 0.00 | 0.00 | 0.00 | 62 | 1014.8 |
| 20260504034531 | 8 | 0 | 0.0 | 0.0 | 0.00 | 0.00 | 0.00 | 61 | 1014.6 |
| 20260504033038 | 9 | 0 | 0.0 | 0.0 | 0.00 | 0.00 | 0.00 | 60 | 1014.4 |
| 20260504031535 | 9 | 0 | 0.0 | 0.0 | 0.00 | 0.00 | 0.00 | 53 | 1014.3 |
| 20260504030037 | 10 | 0 | 0.0 | 0.0 | 0.00 | 0.00 | 0.00 | 50 | 1014.5 |
| 20260504024536 | 10 | 0 | 0.0 | 0.0 | 0.00 | 0.00 | 0.00 | 54 | 1014.4 |
| 20260504023031 | 10 | 0 | 0.0 | 0.0 | 0.00 | 0.00 | 0.00 | 53 | 1014.5 |
| 20260504021535 | 10 | 0 | 0.0 | 0.0 | 0.00 | 0.00 | 0.00 | 46 | 1014.5 |
| 20260504020036 | 10 | 0 | 0.0 | 0.0 | 0.00 | 0.00 | 0.00 | 53 | 1014.3 |
| 20260504014539 | 10 | 0 | 0.0 | 0.0 | 0.00 | 0.00 | 0.00 | 47 | 1014.2 |
| 20260504013049 | 11 | 0 | 0.0 | 0.0 | 0.00 | 0.00 | 0.00 | 52 | 1014.2 |
| 20260504011536 | 11 | 0 | 0.0 | 0.0 | 0.00 | 0.00 | 0.00 | 51 | 1014.0 |
| 20260504010039 | 11 | 0 | 0.0 | 0.0 | 0.00 | 0.00 | 0.00 | 48 | 1013.9 |
| 20260504004537 | 12 | 0 | 0.0 | 0.0 | 0.00 | 0.00 | 0.00 | 39 | 1013.5 |
| 20260504003037 | 12 | 0 | 0.0 | 0.0 | 0.00 | 0.00 | 0.00 | 43 | 1013.4 |
| 20260504001539 | 12 | 0 | 0.0 | 0.0 | 0.00 | 0.00 | 0.00 | 41 | 1013.2 |
| 20260504000037 | 13 | 0 | 0.0 | 4.8 | 0.00 | 0.00 | 0.00 | 40 | 1013.2 |
| 20260503234532 | 13 | 26 | 0.0 | 3.2 | 0.00 | 0.00 | 0.00 | 38 | 1013.0 |
| 20260503233039 | 14 | 0 | 0.0 | 9.7 | 0.00 | 0.00 | 0.00 | 30 | 1013.0 |
| 20260503231537 | 14 | 334 | 0.0 | 12.9 | 0.00 | 0.00 | 0.00 | 28 | 1012.9 |
| 20260503230036 | 15 | 268 | 1.6 | 14.5 | 0.00 | 0.00 | 0.00 | 28 | 1012.7 |
| 20260503224535 | 15 | 0 | 0.0 | 12.9 | 0.00 | 0.00 | 0.00 | 34 | 1012.6 |
| 20260503223031 | 15 | 33 | 0.0 | 9.7 | 0.00 | 0.00 | 0.00 | 34 | 1012.6 |
| 20260503221537 | 15 | 315 | 1.6 | 17.7 | 0.00 | 0.00 | 0.00 | 33 | 1012.8 |
| 20260503220036 | 15 | 327 | 8.0 | 19.3 | 0.00 | 0.00 | 0.00 | 33 | 1012.7 |
| 20260503214534 | 15 | 0 | 1.6 | 17.7 | 0.00 | 0.00 | 0.00 | 26 | 1012.9 |
| 20260503213034 | 15 | 0 | 3.2 | 16.1 | 0.00 | 0.00 | 0.00 | 26 | 1012.7 |
| 20260503211535 | 15 | 0 | 1.6 | 22.5 | 0.00 | 0.00 | 0.00 | 34 | 1012.6 |
| 20260503210033 | 15 | 333 | 1.6 | 19.3 | 0.00 | 0.00 | 0.00 | 27 | 1012.7 |
| 20260503204535 | 15 | 329 | 4.8 | 17.7 | 0.00 | 0.00 | 0.00 | 26 | 1012.6 |
| 20260503203041 | 15 | 0 | 6.4 | 20.9 | 0.00 | 0.00 | 0.00 | 34 | 1012.9 |
| 20260503201533 | 15 | 0 | 3.2 | 14.5 | 0.00 | 0.00 | 0.00 | 28 | 1013.0 |
| 20260503200034 | 14 | 0 | 1.6 | 25.7 | 0.00 | 0.00 | 0.00 | 30 | 1013.1 |
| 20260503194535 | 14 | 332 | 3.2 | 20.9 | 0.00 | 0.00 | 0.00 | 34 | 1013.1 |
| 20260503193040 | 14 | 335 | 1.6 | 22.5 | 0.00 | 0.00 | 0.00 | 34 | 1013.1 |
| 20260503191539 | 14 | 279 | 3.2 | 24.1 | 0.00 | 0.00 | 0.00 | 27 | 1013.1 |
| 20260503190035 | 14 | 268 | 9.7 | 24.1 | 0.00 | 0.00 | 0.00 | 27 | 1013.3 |
| 20260503184532 | 14 | 0 | 8.0 | 24.1 | 0.00 | 0.00 | 0.00 | 27 | 1013.5 |
| 20260503183036 | 14 | 9 | 1.6 | 14.5 | 0.00 | 0.00 | 0.00 | 30 | 1013.8 |
| 20260503181536 | 13 | 324 | 1.6 | 19.3 | 0.00 | 0.00 | 0.00 | 31 | 1013.6 |
| 20260503180045 | 13 | 0 | 1.6 | 22.5 | 0.00 | 0.00 | 0.00 | 32 | 1013.6 |